When you browse on this site, cookies collect data to enhance your experience and personalize the content and advertising you see.
Visit our Privacy Policy to learn more. By continuing to use the site, you agree to this use of cookies and data.

Hourly Weather Naumovka

Today, 14 July, Tuesday

Time Temperature Precipitation Wind Pressure Humidity
00:00 +10°C° 0 mm 2 mps 745 mmHg 96%
01:00 +10°C° 0 mm 2 mps 745 mmHg 96%
02:00 +10°C° 0 mm 2 mps 746 mmHg 97%
03:00 +10°C° 0 mm 2 mps 745 mmHg 96%
04:00 +10°C° 0 mm 2 mps 745 mmHg 95%
05:00 +10°C° 0 mm 2 mps 745 mmHg 94%
06:00 +12°C° 0 mm 3 mps 745 mmHg 87%
07:00 +13°C° 0 mm 3 mps 745 mmHg 80%
08:00 +16°C° 0 mm 3 mps 746 mmHg 72%
09:00 +18°C° 0 mm 3 mps 746 mmHg 65%
10:00 +19°C° 0 mm 4 mps 745 mmHg 58%
11:00 +20°C° 0 mm 4 mps 745 mmHg 51%
12:00 +21°C° 0 mm 4 mps 745 mmHg 50%
13:00 +21°C° 0 mm 4 mps 745 mmHg 49%
14:00 +21°C° 0 mm 4 mps 744 mmHg 49%
15:00 +21°C° 0 mm 4 mps 744 mmHg 52%
16:00 +20°C° 0 mm 4 mps 744 mmHg 55%
17:00 +20°C° 0 mm 4 mps 743 mmHg 58%
18:00 +19°C° 0 mm 4 mps 743 mmHg 61%
19:00 +18°C° 0 mm 4 mps 743 mmHg 63%
20:00 +17°C° 0 mm 4 mps 742 mmHg 66%
21:00 +15°C° 0 mm 4 mps 742 mmHg 64%
22:00 +15°C° 0 mm 5 mps 742 mmHg 63%
23:00 +15°C° 0 mm 5 mps 741 mmHg 62%

Tomorrow, 15 July, Wednesday

Time Temperature Precipitation Wind Pressure Humidity
00:00 +14°C° 0.1 mm 5 mps 741 mmHg 65%
01:00 +14°C° 0.1 mm 5 mps 741 mmHg 68%
02:00 +14°C° 0.1 mm 4 mps 741 mmHg 71%
03:00 +13°C° 0.7 mm 4 mps 741 mmHg 77%
04:00 +12°C° 0.7 mm 5 mps 740 mmHg 84%
05:00 +10°C° 0.7 mm 5 mps 740 mmHg 90%
06:00 +10°C° 0.5 mm 5 mps 740 mmHg 90%
07:00 +10°C° 0.5 mm 5 mps 740 mmHg 90%
08:00 +10°C° 0.5 mm 5 mps 740 mmHg 90%
09:00 +10°C° 0.8 mm 5 mps 740 mmHg 92%
10:00 +10°C° 0.8 mm 5 mps 740 mmHg 93%
11:00 +10°C° 0.8 mm 6 mps 740 mmHg 95%
12:00 +10°C° 0.7 mm 5 mps 740 mmHg 95%
13:00 +10°C° 0.7 mm 5 mps 741 mmHg 95%
14:00 +10°C° 0.7 mm 5 mps 741 mmHg 95%
15:00 +10°C° 0.6 mm 5 mps 741 mmHg 95%
16:00 +10°C° 0.6 mm 5 mps 741 mmHg 95%
17:00 +10°C° 0.6 mm 5 mps 741 mmHg 94%
18:00 +11°C° 0.2 mm 4 mps 741 mmHg 94%
19:00 +11°C° 0.2 mm 4 mps 741 mmHg 94%
20:00 +11°C° 0.2 mm 3 mps 741 mmHg 93%
21:00 +11°C° 0 mm 3 mps 741 mmHg 93%
22:00 +11°C° 0 mm 3 mps 741 mmHg 92%
23:00 +11°C° 0 mm 3 mps 741 mmHg 92%

Day after tomorrow, 16 July, Thursday

Time Temperature Precipitation Wind Pressure Humidity
00:00 +11°C° 0 mm 3 mps 741 mmHg 91%
01:00 +11°C° 0 mm 3 mps 741 mmHg 91%
02:00 +11°C° 0 mm 3 mps 741 mmHg 90%
03:00 +11°C° 0 mm 3 mps 741 mmHg 88%
04:00 +11°C° 0 mm 3 mps 741 mmHg 87%
05:00 +11°C° 0 mm 3 mps 741 mmHg 85%
06:00 +12°C° 0 mm 3 mps 741 mmHg 81%
07:00 +13°C° 0 mm 4 mps 741 mmHg 76%
08:00 +14°C° 0 mm 4 mps 741 mmHg 72%
09:00 +17°C° 0 mm 4 mps 742 mmHg 68%
10:00 +18°C° 0 mm 4 mps 742 mmHg 64%
11:00 +20°C° 0 mm 4 mps 742 mmHg 60%
12:00 +20°C° 0 mm 3 mps 742 mmHg 63%
13:00 +19°C° 0 mm 3 mps 742 mmHg 66%
14:00 +19°C° 0 mm 2 mps 742 mmHg 69%
15:00 +20°C° 0.1 mm 2 mps 742 mmHg 69%
16:00 +21°C° 0.1 mm 1 mps 742 mmHg 69%
17:00 +21°C° 0.1 mm 1 mps 742 mmHg 69%
18:00 +20°C° 0 mm 1 mps 742 mmHg 74%
19:00 +18°C° 0 mm 1 mps 743 mmHg 79%
20:00 +16°C° 0 mm 1 mps 743 mmHg 84%
21:00 +15°C° 0 mm 1 mps 743 mmHg 86%
22:00 +14°C° 0 mm 1 mps 743 mmHg 89%
23:00 +13°C° 0 mm 1 mps 743 mmHg 91%

17 July, Friday

Time Temperature Precipitation Wind Pressure Humidity
00:00 +13°C° 0 mm 1 mps 743 mmHg 93%
01:00 +13°C° 0 mm 1 mps 743 mmHg 94%
02:00 +12°C° 0 mm 1 mps 743 mmHg 95%
03:00 +12°C° 0 mm 1 mps 744 mmHg 94%
04:00 +12°C° 0 mm 1 mps 744 mmHg 94%
05:00 +12°C° 0 mm 1 mps 744 mmHg 94%
06:00 +14°C° 0 mm 1 mps 744 mmHg 84%
07:00 +16°C° 0 mm 1 mps 744 mmHg 75%
08:00 +18°C° 0 mm 2 mps 744 mmHg 66%
09:00 +20°C° 0 mm 2 mps 745 mmHg 60%
10:00 +21°C° 0 mm 2 mps 745 mmHg 54%
11:00 +22°C° 0 mm 3 mps 745 mmHg 48%
12:00 +24°C° 0 mm 3 mps 745 mmHg 46%
13:00 +24°C° 0 mm 2 mps 745 mmHg 45%
14:00 +25°C° 0 mm 2 mps 745 mmHg 44%
15:00 +25°C° 0 mm 2 mps 745 mmHg 46%
16:00 +24°C° 0 mm 2 mps 745 mmHg 49%
17:00 +24°C° 0 mm 2 mps 745 mmHg 51%
18:00 +21°C° 0 mm 2 mps 745 mmHg 58%
19:00 +20°C° 0 mm 1 mps 745 mmHg 65%
20:00 +18°C° 0 mm 1 mps 745 mmHg 72%
21:00 +15°C° 0 mm 1 mps 746 mmHg 74%
22:00 +14°C° 0 mm 1 mps 746 mmHg 76%
23:00 +12°C° 0 mm 0 mps 746 mmHg 77%

18 July, Saturday

Time Temperature Precipitation Wind Pressure Humidity
00:00 +12°C° 0 mm 0 mps 746 mmHg 77%
01:00 +11°C° 0 mm 0 mps 746 mmHg 76%
02:00 +11°C° 0 mm 0 mps 747 mmHg 75%
03:00 +11°C° 0 mm 0 mps 747 mmHg 76%
04:00 +12°C° 0 mm 0 mps 747 mmHg 76%
05:00 +12°C° 0 mm 0 mps 747 mmHg 76%
06:00 +14°C° 0 mm 0 mps 747 mmHg 70%
07:00 +18°C° 0 mm 1 mps 748 mmHg 64%
08:00 +20°C° 0 mm 1 mps 748 mmHg 58%
09:00 +22°C° 0 mm 1 mps 748 mmHg 54%
10:00 +24°C° 0 mm 1 mps 748 mmHg 50%
11:00 +25°C° 0 mm 1 mps 748 mmHg 46%
12:00 +26°C° 0 mm 1 mps 748 mmHg 44%
13:00 +26°C° 0 mm 1 mps 748 mmHg 42%
14:00 +27°C° 0 mm 1 mps 748 mmHg 41%
15:00 +24°C° 0 mm 0 mps 748 mmHg 43%
16:00 +24°C° 0 mm 0 mps 748 mmHg 45%
17:00 +23°C° 0 mm 0 mps 748 mmHg 47%
18:00 +21°C° 0 mm 0 mps 748 mmHg 56%
19:00 +19°C° 0 mm 0 mps 748 mmHg 64%
20:00 +17°C° 0 mm 0 mps 747 mmHg 73%
21:00 +16°C° 0 mm 0 mps 748 mmHg 75%
22:00 +15°C° 0 mm 0 mps 748 mmHg 77%
23:00 +15°C° 0 mm 1 mps 748 mmHg 79%

19 July, Sunday

Time Temperature Precipitation Wind Pressure Humidity
00:00 +15°C° 0 mm 1 mps 748 mmHg 79%
01:00 +14°C° 0 mm 1 mps 748 mmHg 80%
02:00 +14°C° 0 mm 1 mps 748 mmHg 80%
03:00 +14°C° 0 mm 1 mps 748 mmHg 81%
04:00 +14°C° 0 mm 1 mps 748 mmHg 82%
05:00 +14°C° 0 mm 1 mps 748 mmHg 83%
06:00 +16°C° 0 mm 1 mps 748 mmHg 76%
07:00 +20°C° 0 mm 1 mps 748 mmHg 69%
08:00 +22°C° 0 mm 1 mps 748 mmHg 62%
09:00 +23°C° 0 mm 1 mps 748 mmHg 58%
10:00 +25°C° 0 mm 1 mps 748 mmHg 53%
11:00 +26°C° 0 mm 1 mps 748 mmHg 48%
12:00 +26°C° 0 mm 1 mps 748 mmHg 50%
13:00 +26°C° 0 mm 1 mps 748 mmHg 52%
14:00 +26°C° 0 mm 1 mps 747 mmHg 54%
15:00 +26°C° 0 mm 1 mps 747 mmHg 57%
16:00 +25°C° 0 mm 1 mps 747 mmHg 60%
17:00 +25°C° 0 mm 1 mps 747 mmHg 63%
18:00 +24°C° 0 mm 1 mps 746 mmHg 69%
19:00 +22°C° 0 mm 1 mps 746 mmHg 75%
20:00 +18°C° 0 mm 0 mps 746 mmHg 82%
21:00 +20°C° 0 mm 1 mps 746 mmHg 83%
22:00 +19°C° 0 mm 1 mps 746 mmHg 84%
23:00 +19°C° 0 mm 1 mps 746 mmHg 85%
Show more